Location: Unspecified
(0.0000°N, 0.0000°E)
Time: 04:45:23
(UTC+02:00)

GPS 2-12 Rocket1 - Visible Passes

Search period start: 28 May 2017 00:00
Search period end: 07 June 2017 00:00
Orbit: 587 x 653 km, 20.0° (Epoch: 26 May)

Date Brightness Start Highest point End Pass type
(mag) Time Alt. Az. Time Alt. Az. Time Alt. Az.
28 May 3.9 21:49:28 10° NW 21:53:03 42° N 21:53:03 42° N visible
29 May 4.6 20:22:45 10° NW 20:26:31 25° NNE 20:30:13 10° ENE visible
29 May 4.4 22:05:34 10° WNW 22:08:16 36° WNW 22:08:16 36° WNW visible
30 May 5.3 06:48:38 10° S 06:50:38 13° SSE 06:52:39 10° SE visible
30 May 3.8 20:38:31 10° NW 20:42:51 42° NNE 20:46:29 13° E visible
30 May 5.3 22:21:57 10° W 22:23:30 20° W 22:23:30 20° W visible
31 May 5.0 07:03:53 10° SSW 07:07:05 19° SSE 07:10:24 10° ESE visible
31 May 3.0 20:54:33 10° WNW 20:59:07 77° NNE 21:01:44 24° ESE visible
31 May 6.1 22:38:41 10° W 22:38:45 10° W 22:38:45 10° W visible
01 Jun 4.4 07:19:24 10° SW 07:23:27 30° SSE 07:27:33 10° E visible
01 Jun 3.2 21:10:52 10° W 21:15:23 59° SSW 21:16:59 36° SE visible
02 Jun 5.3 05:57:22 15° SE 05:57:22 15° SE 05:59:02 10° ESE visible
02 Jun 4.0 21:27:30 10° W 21:31:40 34° SSW 21:32:15 32° S visible
03 Jun 4.5 06:12:38 26° SSE 06:12:38 26° SSE 06:16:18 10° ESE visible
03 Jun 4.8 21:44:32 10° WSW 21:47:30 20° SSW 21:47:30 20° SSW visible
04 Jun 3.6 06:27:53 39° S 06:28:45 44° SSE 06:33:07 10° E visible
04 Jun 4.0 20:16:19 10° W 20:20:40 38° SSW 20:24:57 10° SE visible
04 Jun 5.6 22:02:07 10° SW 22:02:45 12° SW 22:02:45 12° SW visible
05 Jun 3.0 06:43:08 35° WSW 06:45:01 79° SSE 06:49:36 10° ENE visible
05 Jun 4.7 20:33:15 10° WSW 20:36:59 24° SSW 20:40:41 10° SE visible
06 Jun 5.8 05:21:21 14° E 05:21:21 14° E 05:21:59 10° E visible
06 Jun 3.3 06:58:22 20° W 07:01:16 57° NNW 07:05:47 10° ENE visible
06 Jun 5.2 20:50:39 10° SW 20:53:23 15° SSW 20:56:07 10° SSE visible
